Weather Roundup
Issued by NWS Chicago, IL

Home | Current Version | Previous Version | Graphics & Text | Print | Product List | Glossary On
Versions: 1 2 3 4 5 6 7 8 9 10 11 12 13 14 15 16 17 18 19 20 21 22 23 24 25 26 27 28 29 30 31 32 33 34 35 36 37 38 39 40 41 42 43 44 45 46 47 48 49 50
000
NZUS59 KLOT 031010
HRRLOT

CHICAGO AREA WEATHER ROUNDUP
NATIONAL WEATHER SERVICE CHICAGO/ROMEOVILLE IL
400 AM CST TUE MAR 03 2015

NOTE: "FAIR" INDICATES FEW OR NO CLOUDS BELOW 12,000 FEET WITH NO
SIGNIFICANT WEATHER AND/OR OBSTRUCTIONS TO VISIBILITY.

* THESE STATIONS ARE NOT UNDER NWS QUALITY CONTROL. THEY ALSO MAY NOT
  REPORT WEATHER SUCH AS PRECIPITATION OR FOG.

ILZ005-006-012>014-019>023-031100-
NORTHEAST ILLINOIS

CITY           SKY/WX    TMP DP  RH WIND       PRES   REMARKS
OHARE          CLOUDY    26  17  68 S10       30.05F WCI  16
MIDWAY         LGTSLEET  29  16  58 S8        30.08F WCI  21
AURORA         LGT SNOW  26  18  71 SE12      30.06F WCI  16
LANSING*       MIX PCPN  27  17  68 SE12      30.08F WCI  16
JOLIET*        RAIN      26  20  79 SE8       30.06F WCI  18
WAUKEGAN       CLOUDY    27  21  78 SE15      30.04F WCI  15
DUPAGE AIRPORT MIX PCPN  26  17  68 SE9       30.04F WCI  17
WHEELING       CLOUDY    27  16  63 S9        30.08F WCI  18
KANKAKEE*      MIX PCPN  27  23  83 SE10      30.07F WCI  18
MORRIS*        MIX PCPN  27  23  84 SE8       30.06F WCI  19
LEWIS AIRPORT* LGT RAIN  26  19  76 SE12      30.05F WCI  15
NORTHERLY IS     N/A     28  17  63 S7          N/A  WCI  21
$$

WIZ051-052-058>065-066-070>072-031100-
SOUTHEAST WISCONSIN

CITY           SKY/WX    TMP DP  RH WIND       PRES   REMARKS
MILWAUKEE      CLOUDY    27  17  66 SE12      30.04F WCI  17
KENOSHA*       CLOUDY    27  19  72 SE12      30.03F WCI  17
RACINE*        CLOUDY    28  19  69 S13       30.05F WCI  17
BURLINGTON     CLOUDY    24  14  67 SE6       30.04F WCI  17
WAUKESHA       CLOUDY    23  16  74 SE8       30.03F WCI  14
WEST BEND      CLOUDY    25  16  68 SE5       30.00F WCI  19
$$

INZ001>003-010>013-019-020-031100-
NORTHWEST INDIANA

CITY           SKY/WX    TMP DP  RH WIND       PRES   REMARKS
GARY*          NOT AVBL
MICHIGAN CITY* NOT AVBL
RENSSELAER*    NOT AVBL
VALPARAISO     CLOUDY    25  16  68 SE9       30.08F WCI  15
$$

LMZ740>746-031100-
SOUTHERN LAKE MICHIGAN

STATION/POSITION TIME  SKY/WX   TEMP WIND        PRES    VSBY
                                AIR  DIR/SP/G
                 (UTC)          (F)  (DEG/KT/KT) (MB)    (MI)
HARRISON CRIB    1000            28  160/ 15/ 19   N/A
BURNHAM HARBOR   1000            27  180/  8/ 13   N/A
CALUMET HARBOR   1000                            1017.4F
BURNS HARBOR     NOT AVBL
MICHIGAN CITY    1000            27  130/ 11/ 14   N/A
$$

ABBREVIATIONS USED IN REMARKS
   TC - TEMPERATURE IN CELSIUS
  WCI - WIND CHILL INDEX
   HX - HEAT INDEX
  VSB - VISIBILITY
$$


USA.gov is the U.S. government's official web portal to all federal, state and local government web resources and services.